Starlink 30375

operational
NORAD ID: 57732 Int'l Des: 2023-131 Owner: SPXS Country: US Constellation: starlink
LEOCIRCULAR

关于 Starlink 30375

正在加载描述...

实时位置

正在加载3D地球...

即将过境

高度历史

Altitude vs Time

uPlot chart will show altitude changes over time

两行轨道根数

1 57732U 23131A 25258.07344502 -.00000194 00000-0 72434-6 0 9992
2 57732 43.0071 33.5437 0001435 266.9717 93.0961 15.02534722113663
Epoch: Sep 15, 2025 • Age: 16 hours

当前状态

高度 567.3 km
速度 7.58 km/s
星下点 -32.38°S, 90.18°E
发射日期 Sep 1, 2023
运行时间 2 years
类型 internet

技术详情

分类 Payload
质量 730.00 kg
干质量 700.00 kg
总质量 730.00 kg
长度 0.30 m
直径 4.10 m
跨度 29.00 m
形状 Box + pan
制造商 SPXS
平台类型 Starlink V2M
阶段状态 In Orbit
所有者/国家 SPXS/US

大型星座

Loading constellations...